TimeEDT,TemperatureF,Dew PointF,Humidity,Sea Level PressureIn,VisibilityMPH,Wind Direction,Wind SpeedMPH,Gust SpeedMPH,PrecipitationIn,Events,Conditions,WindDirDegrees,DateUTC
12:32 AM,59.0,55.4,88,29.93,1.5,Variable,6.9,-,0.29,Rain-Thunderstorm,Heavy Thunderstorms and Rain,0,2013-05-22 04:32:00
12:37 AM,57.2,55.4,94,29.91,0.8,Variable,5.8,-,0.54,Rain-Thunderstorm,Heavy Thunderstorms and Rain,0,2013-05-22 04:37:00
12:50 AM,59.0,57.2,94,29.88,1.8,SE,8.1,-,0.72,Rain-Thunderstorm,Heavy Thunderstorms and Rain,130,2013-05-22 04:50:00
12:54 AM,59.0,57.0,93,29.88,1.5,SE,15.0,23.0,0.79,Rain-Thunderstorm,Heavy Thunderstorms and Rain,140,2013-05-22 04:54:00
1:03 AM,59.0,55.4,88,29.87,3.0,East,8.1,23.0,0.03,Rain-Thunderstorm,Light Thunderstorms and Rain,100,2013-05-22 05:03:00
1:14 AM,60.8,57.2,88,29.87,4.0,Variable,5.8,-,0.07,Rain-Thunderstorm,Rain,0,2013-05-22 05:14:00
1:22 AM,60.8,57.2,88,29.89,2.5,SE,9.2,-,0.13,Rain-Thunderstorm,Thunderstorms and Rain,140,2013-05-22 05:22:00
1:33 AM,60.8,57.2,88,29.91,1.5,South,9.2,-,0.27,Rain-Thunderstorm,Heavy Thunderstorms and Rain,180,2013-05-22 05:33:00
1:44 AM,60.8,57.2,88,29.91,2.5,South,8.1,-,0.32,Rain-Thunderstorm,Light Thunderstorms and Rain,180,2013-05-22 05:44:00
1:51 AM,60.8,57.2,88,29.90,5.0,SE,4.6,-,0.34,Rain-Thunderstorm,Light Thunderstorms and Rain,140,2013-05-22 05:51:00
1:54 AM,60.1,57.9,93,29.89,5.0,SE,5.8,-,0.35,Rain-Thunderstorm,Light Thunderstorms and Rain,140,2013-05-22 05:54:00
2:25 AM,60.8,57.2,88,29.89,5.0,SSE,3.5,-,0.11,Rain-Thunderstorm,Light Rain,160,2013-05-22 06:25:00
2:46 AM,60.8,57.2,88,29.88,7.0,SE,5.8,-,0.17,Rain,Light Rain,140,2013-05-22 06:46:00
2:54 AM,60.1,57.0,90,29.85,8.0,ESE,4.6,-,0.19,Rain,Light Rain,110,2013-05-22 06:54:00
3:51 AM,60.8,57.2,88,29.84,1.8,South,5.8,-,0.17,Rain,Heavy Rain,190,2013-05-22 07:51:00
3:54 AM,61.0,57.9,90,29.82,1.8,Calm,Calm,-,0.17,Rain,Rain,0,2013-05-22 07:54:00
3:58 AM,60.8,57.2,88,29.83,3.0,Calm,Calm,-,0.00,Rain,Light Rain,0,2013-05-22 07:58:00
4:54 AM,61.0,57.9,90,29.86,5.0,South,4.6,-,0.08,Rain,Light Rain,180,2013-05-22 08:54:00
5:54 AM,61.0,57.9,90,29.84,10.0,Variable,6.9,-,0.07,Rain,Light Rain,0,2013-05-22 09:54:00
6:54 AM,64.0,59.0,84,29.86,10.0,Calm,Calm,-,0.01,,Scattered Clouds,0,2013-05-22 10:54:00
7:54 AM,64.0,61.0,90,29.86,10.0,Calm,Calm,-,N/A,,Scattered Clouds,0,2013-05-22 11:54:00
8:54 AM,69.1,62.1,78,29.86,10.0,Calm,Calm,-,N/A,,Clear,0,2013-05-22 12:54:00
9:54 AM,71.1,63.0,75,29.86,10.0,SSW,5.8,-,N/A,,Clear,200,2013-05-22 13:54:00
10:54 AM,73.9,64.9,73,29.86,10.0,SSW,6.9,-,N/A,,Clear,200,2013-05-22 14:54:00
11:54 AM,73.0,64.0,73,29.86,10.0,SW,5.8,-,N/A,,Clear,220,2013-05-22 15:54:00
12:54 PM,77.0,64.9,66,29.86,10.0,ESE,4.6,-,N/A,,Partly Cloudy,120,2013-05-22 16:54:00
1:54 PM,78.1,66.0,66,29.83,10.0,South,8.1,-,N/A,,Clear,180,2013-05-22 17:54:00
2:54 PM,75.9,68.0,76,29.83,8.0,North,3.5,-,0.00,Rain,Light Rain,360,2013-05-22 18:54:00
3:16 PM,73.4,69.8,88,29.86,3.0,WSW,4.6,-,0.03,Rain-Thunderstorm,Light Thunderstorms and Rain,250,2013-05-22 19:16:00
3:20 PM,73.4,69.8,88,29.86,2.5,WSW,5.8,-,0.04,Rain-Thunderstorm,Light Thunderstorms and Rain,250,2013-05-22 19:20:00
3:26 PM,73.4,66.2,78,29.86,3.0,WSW,6.9,-,0.05,Rain-Thunderstorm,Light Thunderstorms and Rain,250,2013-05-22 19:26:00
3:43 PM,71.6,68.0,88,29.86,2.0,Variable,5.8,17.3,0.07,Rain-Thunderstorm,Light Thunderstorms and Rain,0,2013-05-22 19:43:00
3:51 PM,69.8,66.2,88,29.89,1.5,West,13.8,23.0,0.19,Rain-Thunderstorm,Thunderstorms and Rain,280,2013-05-22 19:51:00
3:54 PM,68.0,64.0,87,29.87,1.2,West,16.1,23.0,0.29,Rain-Thunderstorm,Heavy Thunderstorms and Rain,260,2013-05-22 19:54:00
4:07 PM,66.2,64.4,94,29.86,2.0,WSW,6.9,16.1,0.11,Rain-Thunderstorm,Light Thunderstorms and Rain,240,2013-05-22 20:07:00
4:10 PM,66.2,64.4,94,29.86,3.0,West,5.8,-,0.12,Rain-Thunderstorm,Light Thunderstorms and Rain,260,2013-05-22 20:10:00
4:38 PM,66.2,64.4,94,29.85,2.5,Calm,Calm,-,0.22,Rain-Thunderstorm,Light Rain,0,2013-05-22 20:38:00
4:40 PM,66.2,64.4,94,29.85,3.0,ESE,3.5,-,0.22,Rain,Light Rain,110,2013-05-22 20:40:00
4:54 PM,66.9,64.0,90,29.83,10.0,Calm,Calm,-,0.23,Rain,Light Rain,0,2013-05-22 20:54:00
5:54 PM,73.0,66.0,79,29.81,10.0,ENE,3.5,-,0.01,,Clear,60,2013-05-22 21:54:00
6:54 PM,73.9,66.0,76,29.81,10.0,SSW,6.9,-,N/A,,Clear,210,2013-05-22 22:54:00
7:54 PM,71.1,66.9,87,29.81,7.0,NNW,5.8,-,N/A,,Clear,340,2013-05-22 23:54:00
8:54 PM,71.1,66.0,84,29.81,9.0,SSW,4.6,-,N/A,,Clear,210,2013-05-23 00:54:00
9:54 PM,71.1,66.0,84,29.82,8.0,NNW,4.6,-,N/A,,Clear,340,2013-05-23 01:54:00
10:54 PM,73.9,66.9,79,29.79,9.0,South,12.7,20.7,N/A,,Clear,170,2013-05-23 02:54:00
11:54 PM,73.9,66.0,76,29.78,8.0,South,10.4,19.6,N/A,,Clear,180,2013-05-23 03:54:00